Regional Weather Roundup
Issued by NWS

Home | Current Version | Previous Version | Text Only | Print | Product List | Glossary On
Versions: 1 2 3 4 5 6 7 8 9 10 11 12 13 14 15 16 17 18 19 20 21 22 23 24 25 26 27 28 29 30 31 32 33 34 35 36 37 38 39 40 41 42 43 44 45 46 47 48 49 50
000
ASUS43 KOAX 050702
RWRNE

WEATHER ROUNDUP FOR NEBRASKA
NATIONAL WEATHER SERVICE OMAHA NE
100 AM CST MON DEC 05 2016

NOTES: SATELLITE DATA IS BEING USED TO AUGMENT CLOUD COVER ABOVE
       12000 FEET.
       "FAIR" INDICATES FEW OR NO CLOUDS BELOW 12,000 FEET WITH NO
       SIGNIFICANT WEATHER AND/OR OBSTRUCTIONS TO VISIBILITY.

  * THESE STATIONS DO NOT REPORT WEATHER SUCH AS RAIN...SNOW OR FOG.

NEZ001>004-019>022-054>056-050800-
NEBRASKA PANHANDLE

CITY           SKY/WX    TMP DP  RH WIND       PRES   REMARKS
SCOTTSBLUFF    CLOUDY    46  19  34 W9        29.62F
ALLIANCE       CLOUDY    32  18  56 W5        29.61F WCI  27
CHADRON        CLOUDY    39  21  48 SW8       29.57F WCI  33
KIMBALL        CLOUDY    36  20  52 SW8       29.67S WCI  30
SIDNEY         CLOUDY    41  15  35 W13       29.66F
$$

NEZ057>060-069>072-079>082-050800-
SOUTHWEST NEBRASKA

CITY           SKY/WX    TMP DP  RH WIND       PRES   REMARKS
NORTH PLATTE   CLEAR     35  16  45 W7        29.71F WCI  29
IMPERIAL       CLOUDY    34  15  46 S12       29.69F WCI  25
LEXINGTON      CLOUDY    38  19  45 SW12      29.73F WCI  30
MCCOOK         CLOUDY    37  20  50 SW9       29.73F WCI  30
OGALLALA       CLOUDY    35  19  50 CALM      29.68F
$$

NEZ005>010-023>029-035>040-094-050800-
NORTH CENTRAL NEBRASKA

CITY           SKY/WX    TMP DP  RH WIND       PRES   REMARKS
VALENTINE      CLOUDY    31  15  52 SW7       29.60F WCI  24
AINSWORTH      CLEAR     35  19  51 SW14      29.61F WCI  26
BROKEN BOW     PTCLDY    38  18  44 SW10      29.70F WCI  31
O`NEILL        CLOUDY    35  22  58 S12G17    29.66F WCI  27
ORD            CLOUDY    36  20  52 S14       29.69F WCI  27
THEDFORD       CLOUDY    37  18  46 SW9       29.66S WCI  30
$$

NEZ041-046>049-061>064-073>077-083>087-050800-
SOUTH CENTRAL NEBRASKA

CITY           SKY/WX    TMP DP  RH WIND       PRES   REMARKS
GRAND ISLAND   CLOUDY    39  26  59 S16       29.77F WCI  30
AURORA         CLOUDY    35  28  75 S13       29.79F WCI  27
HASTINGS       CLOUDY    37  25  61 S12       29.79F WCI  29
HEBRON         CLOUDY    35  28  76 S9        29.85F WCI  27
HOLDREGE       CLOUDY    36  22  57 S13       29.76F WCI  27
KEARNEY *      CLOUDY    37  21  52 SW15      29.75F WCI  28
YORK           PTCLDY    32  30  93 S9        29.81F WCI  24
$$

NEZ011>018-030>034-042>045-050800-
NORTHEAST NEBRASKA

CITY           SKY/WX    TMP DP  RH WIND       PRES   REMARKS
NORFOLK        CLEAR     33  27  78 S10       29.75F WCI  25
ALBION         CLOUDY    32  26  77 S5        29.75F WCI  27
BLAIR          CLEAR     32  30  92 S10       29.83F WCI  24
FREMONT        CLEAR     35  30  82 S9        29.83S WCI  28
TEKAMAH        CLEAR     32  29  88 S9        29.83F WCI  24
WAYNE          CLEAR     31  28  88 SW6       29.77F WCI  26
$$

NEZ050>053-065>068-078-088>093-050800-
SOUTHEAST NEBRASKA

CITY           SKY/WX    TMP DP  RH WIND       PRES   REMARKS
LINCOLN        CLEAR     31  27  85 CALM      29.85F
OMAHA EPPLEY   PTCLDY    29  25  85 SE9       29.86F WCI  20
BEATRICE       CLEAR     35  32  89 S9        29.87F WCI  27
FALLS CITY     CLEAR     33  31  92 S10       29.92F WCI  25
NEBRASKA CITY  CLEAR     33  32  96 S10       29.87F WCI  25
PLATTSMOUTH    CLEAR     33  30  88 S10       29.86S WCI  25
$$

NEZ044-045-051>053-067-050800-
OMAHA AREA

CITY           SKY/WX    TMP DP  RH WIND       PRES   REMARKS
OMAHA EPPLEY   PTCLDY    29  25  85 SE9       29.86F WCI  20
BLAIR          CLEAR     32  30  92 S10       29.83F WCI  24
FREMONT        CLEAR     35  30  82 S9        29.83S WCI  28
MILLARD        CLEAR     30  28  94 CALM      29.85F
OFFUTT AFB     CLEAR     24  24 100 E5        29.85F WCI  19
PLATTSMOUTH    CLEAR     33  30  88 S10       29.86S WCI  25
WAHOO          FAIR      27  26  96 S3        29.83F
$$



USA.gov is the U.S. government's official web portal to all federal, state and local government web resources and services.